ASA553 KSMF-MMSD

Flight info

Callsign ASA553
Flight time 2h 35m
Altitude 37000
Route FTHIL3 FRA DCT EHF DCT LANDO DCT ELMOO DCT OTAYY DCT TIJ UT6 IMUSU UT25 LTO DCT ENEKO ENEKO1A
Aircraft B38M/M-SDE1FGHILORVWXY/HB1

Departure

Time 2026-04-29 16:23
Airport Sacramento International Airport (KSMF)

Arrival

Time 2026-04-29 18:58
Airport Los Cabos International Airport (MMSD)
Time Latitude Longitude Altitude Speed Heading
2026-04-29 15:48 38.69519 -121.59144 31 ft 0 kts 359°
2026-04-29 16:12 38.69515 -121.59144 31 ft 2 kts 358°
2026-04-29 16:13 38.69500 -121.59144 31 ft 3 kts 359°
2026-04-29 16:13 38.69481 -121.59144 31 ft 3 kts
2026-04-29 16:13 38.69469 -121.59148 31 ft 2 kts 50°
2026-04-29 16:13 38.69464 -121.59164 31 ft 3 kts 86°
2026-04-29 16:14 38.69463 -121.59158 31 ft 4 kts 91°
2026-04-29 16:14 38.69463 -121.59123 31 ft 4 kts 91°
2026-04-29 16:14 38.69463 -121.59088 31 ft 4 kts 92°
2026-04-29 16:14 38.69461 -121.59063 31 ft 2 kts 95°
2026-04-29 16:15 38.69460 -121.59051 31 ft 0 kts 95°
2026-04-29 16:16 38.69460 -121.59050 31 ft 1 kts 95°
2026-04-29 16:16 38.69459 -121.59025 31 ft 5 kts 92°
2026-04-29 16:17 38.69459 -121.58964 31 ft 8 kts 81°
2026-04-29 16:17 38.69502 -121.58921 31 ft 9 kts
2026-04-29 16:17 38.69575 -121.58919 31 ft 11 kts
2026-04-29 16:17 38.69661 -121.58917 31 ft 14 kts
2026-04-29 16:18 38.69747 -121.58909 31 ft 11 kts 26°
2026-04-29 16:18 38.69766 -121.58816 31 ft 12 kts 91°
2026-04-29 16:18 38.69764 -121.58698 31 ft 14 kts 91°
2026-04-29 16:18 38.69763 -121.58563 31 ft 16 kts 90°
2026-04-29 16:19 38.69762 -121.58410 31 ft 18 kts 90°
2026-04-29 16:19 38.69767 -121.58304 31 ft 10 kts 58°
2026-04-29 16:19 38.69838 -121.58284 31 ft 12 kts
2026-04-29 16:19 38.69946 -121.58283 31 ft 19 kts
2026-04-29 16:20 38.70085 -121.58279 31 ft 21 kts
2026-04-29 16:20 38.70235 -121.58278 31 ft 22 kts
2026-04-29 16:20 38.70396 -121.58277 31 ft 24 kts
2026-04-29 16:20 38.70566 -121.58272 31 ft 23 kts
2026-04-29 16:21 38.70678 -121.58260 31 ft 13 kts 27°
2026-04-29 16:21 38.70701 -121.58152 31 ft 14 kts 90°
2026-04-29 16:21 38.70700 -121.58031 31 ft 7 kts 92°
2026-04-29 16:21 38.70679 -121.58007 31 ft 4 kts 178°
2026-04-29 16:22 38.70639 -121.58008 31 ft 9 kts 181°
2026-04-29 16:22 38.70433 -121.58012 32 ft 64 kts 181°
2026-04-29 16:22 38.69738 -121.58025 32 ft 133 kts 181°
2026-04-29 16:22 38.68635 -121.58046 163 ft 174 kts 181°
2026-04-29 16:23 38.67404 -121.58053 866 ft 179 kts 179°
2026-04-29 16:23 38.66179 -121.57728 1470 ft 194 kts 153°
2026-04-29 16:23 38.65091 -121.56599 2040 ft 213 kts 126°
2026-04-29 16:23 38.64262 -121.54926 2628 ft 233 kts 119°
2026-04-29 16:24 38.63408 -121.53085 3341 ft 250 kts 120°
2026-04-29 16:24 38.62461 -121.51127 4008 ft 268 kts 121°
2026-04-29 16:24 38.61452 -121.49096 4986 ft 270 kts 121°
2026-04-29 16:24 38.60430 -121.47061 6003 ft 273 kts 122°
2026-04-29 16:25 38.59392 -121.45014 6980 ft 276 kts 122°
2026-04-29 16:25 38.58339 -121.42947 7888 ft 280 kts 123°
2026-04-29 16:25 38.57263 -121.40843 8772 ft 284 kts 123°
2026-04-29 16:25 38.56173 -121.38715 9675 ft 289 kts 123°
2026-04-29 16:26 38.55062 -121.36547 10422 ft 298 kts 123°
2026-04-29 16:26 38.53886 -121.34261 10824 ft 318 kts 123°
2026-04-29 16:26 38.52625 -121.31819 11172 ft 339 kts 123°
2026-04-29 16:26 38.51296 -121.29248 11594 ft 355 kts 123°
2026-04-29 16:27 38.49917 -121.26577 12205 ft 363 kts 122°
2026-04-29 16:27 38.48523 -121.23870 12999 ft 367 kts 122°
2026-04-29 16:27 38.47115 -121.21136 13769 ft 372 kts 122°
2026-04-29 16:27 38.45681 -121.18355 14439 ft 377 kts 122°
2026-04-29 16:28 38.44230 -121.15542 15086 ft 382 kts 122°
2026-04-29 16:28 38.42760 -121.12696 15746 ft 387 kts 122°
2026-04-29 16:28 38.41270 -121.09812 16379 ft 392 kts 122°
2026-04-29 16:28 38.39759 -121.06890 17004 ft 397 kts 121°
2026-04-29 16:29 38.38229 -121.03934 17621 ft 402 kts 121°
2026-04-29 16:29 38.36677 -121.00938 18243 ft 407 kts 121°
2026-04-29 16:29 38.35108 -120.97913 18805 ft 412 kts 121°
2026-04-29 16:29 38.33519 -120.94850 19342 ft 417 kts 121°
2026-04-29 16:30 38.31909 -120.91751 19862 ft 422 kts 121°
2026-04-29 16:30 38.30280 -120.88620 20387 ft 426 kts 121°
2026-04-29 16:30 38.28638 -120.85465 20896 ft 430 kts 121°
2026-04-29 16:30 38.26977 -120.82277 21400 ft 435 kts 121°
2026-04-29 16:31 38.25298 -120.79056 21932 ft 438 kts 121°
2026-04-29 16:31 38.23603 -120.75810 22435 ft 442 kts 120°
2026-04-29 16:31 38.21894 -120.72539 22933 ft 447 kts 120°
2026-04-29 16:31 38.20165 -120.69234 23417 ft 451 kts 120°
2026-04-29 16:32 38.18421 -120.65901 23869 ft 455 kts 120°
2026-04-29 16:32 38.17256 -120.63679 24138 ft 457 kts 120°
2026-04-29 16:32 38.14888 -120.59165 24720 ft 460 kts 120°
2026-04-29 16:32 38.13106 -120.55771 25141 ft 463 kts 120°
2026-04-29 16:33 38.09507 -120.48929 25959 ft 468 kts 120°
2026-04-29 16:33 38.07691 -120.45480 26363 ft 471 kts 120°
2026-04-29 16:33 38.05840 -120.42041 26734 ft 473 kts 121°
2026-04-29 16:34 38.03940 -120.38620 27158 ft 476 kts 121°
2026-04-29 16:34 38.02032 -120.35173 27506 ft 479 kts 121°
2026-04-29 16:34 38.00141 -120.31755 27891 ft 481 kts 121°
2026-04-29 16:34 37.98209 -120.28269 28259 ft 484 kts 121°
2026-04-29 16:35 37.96262 -120.24775 28614 ft 488 kts 123°
2026-04-29 16:35 37.93919 -120.21626 28987 ft 496 kts 139°
2026-04-29 16:35 37.91039 -120.19182 29365 ft 501 kts 146°
2026-04-29 16:35 37.88053 -120.16868 29663 ft 504 kts 146°
2026-04-29 16:36 37.85044 -120.14575 30050 ft 505 kts 147°
2026-04-29 16:36 37.82018 -120.12301 30364 ft 508 kts 147°
2026-04-29 16:36 37.78966 -120.10024 30646 ft 511 kts 147°
2026-04-29 16:36 37.75888 -120.07732 30855 ft 515 kts 147°
2026-04-29 16:37 37.73801 -120.06181 31084 ft 516 kts 147°
2026-04-29 16:37 37.70740 -120.03907 31336 ft 518 kts 148°
2026-04-29 16:37 37.67604 -120.01579 31830 ft 514 kts 148°
2026-04-29 16:37 37.65564 -120.00065 32141 ft 513 kts 148°
2026-04-29 16:38 37.61493 -119.97048 32648 ft 512 kts 147°
2026-04-29 16:38 37.58422 -119.94774 33087 ft 511 kts 148°
2026-04-29 16:38 37.55353 -119.92506 33441 ft 512 kts 147°
2026-04-29 16:38 37.52285 -119.90240 33836 ft 510 kts 148°
2026-04-29 16:39 37.49235 -119.87988 34277 ft 508 kts 148°
2026-04-29 16:39 37.46188 -119.85743 34619 ft 507 kts 148°
2026-04-29 16:39 37.43153 -119.83508 34984 ft 505 kts 148°
2026-04-29 16:39 37.40120 -119.81276 35328 ft 505 kts 148°
2026-04-29 16:40 37.37087 -119.79046 35582 ft 505 kts 149°
2026-04-29 16:40 37.34067 -119.76827 35967 ft 501 kts 149°
2026-04-29 16:40 37.31071 -119.74628 36386 ft 497 kts 149°
2026-04-29 16:40 37.28089 -119.72443 36739 ft 495 kts 150°
2026-04-29 16:41 37.25121 -119.70268 37044 ft 494 kts 150°
2026-04-29 16:41 37.22149 -119.68093 37181 ft 494 kts 150°
2026-04-29 16:41 37.16254 -119.63784 37151 ft 487 kts 150°
2026-04-29 16:42 37.10318 -119.59706 37123 ft 485 kts 162°
2026-04-29 16:42 37.03828 -119.57521 37116 ft 485 kts 167°
2026-04-29 16:43 36.97311 -119.55429 37148 ft 482 kts 168°
2026-04-29 16:43 36.90841 -119.53400 37162 ft 478 kts 168°
2026-04-29 16:44 36.84384 -119.51385 37146 ft 478 kts 168°
2026-04-29 16:44 36.77928 -119.49373 37150 ft 478 kts 168°
2026-04-29 16:45 36.71469 -119.47363 37146 ft 478 kts 168°
2026-04-29 16:45 36.65009 -119.45356 37144 ft 478 kts 168°
2026-04-29 16:46 36.58557 -119.43355 37137 ft 478 kts 168°
2026-04-29 16:46 36.52105 -119.41358 37158 ft 477 kts 168°
2026-04-29 16:47 36.45659 -119.39365 37164 ft 477 kts 168°
2026-04-29 16:47 36.39223 -119.37380 37159 ft 476 kts 169°
2026-04-29 16:48 36.32813 -119.35406 37163 ft 474 kts 169°
2026-04-29 16:48 36.26456 -119.33451 37165 ft 474 kts 169°
2026-04-29 16:49 36.20062 -119.31488 37158 ft 473 kts 169°
2026-04-29 16:49 36.13704 -119.29540 37157 ft 470 kts 169°
2026-04-29 16:50 36.07361 -119.27599 37162 ft 470 kts 169°
2026-04-29 16:50 36.01014 -119.25661 37144 ft 469 kts 169°
2026-04-29 16:51 35.94708 -119.23736 37167 ft 463 kts 170°
2026-04-29 16:51 35.88459 -119.21835 37162 ft 463 kts 170°
2026-04-29 16:52 35.82203 -119.19934 37145 ft 463 kts 170°
2026-04-29 16:52 35.75972 -119.18043 37144 ft 459 kts 171°
2026-04-29 16:53 35.69767 -119.16163 37147 ft 459 kts 171°
2026-04-29 16:53 35.63566 -119.14287 37147 ft 459 kts 171°
2026-04-29 16:54 35.57375 -119.12417 37147 ft 456 kts 172°
2026-04-29 16:54 35.51238 -119.10555 37142 ft 455 kts 169°
2026-04-29 16:55 35.48289 -119.09048 37121 ft 465 kts 153°
2026-04-29 16:55 35.45669 -119.06680 37157 ft 471 kts 146°
2026-04-29 16:55 35.40558 -119.01597 37133 ft 474 kts 146°
2026-04-29 16:56 35.35474 -118.96429 37144 ft 475 kts 146°
2026-04-29 16:56 35.30395 -118.91244 37147 ft 476 kts 147°
2026-04-29 16:57 35.25308 -118.86057 37142 ft 476 kts 147°
2026-04-29 16:57 35.20231 -118.80888 37136 ft 473 kts 149°
2026-04-29 16:58 35.15208 -118.75784 37163 ft 472 kts 149°
2026-04-29 16:58 35.10152 -118.70655 37163 ft 472 kts 149°
2026-04-29 16:59 35.05094 -118.65531 37152 ft 473 kts 151°
2026-04-29 16:59 34.99879 -118.60887 37162 ft 446 kts 167°
2026-04-29 17:00 34.94258 -118.57544 37167 ft 451 kts 165°
2026-04-29 17:00 34.88626 -118.54170 37134 ft 450 kts 165°
2026-04-29 17:01 34.82986 -118.50842 37124 ft 451 kts 165°
2026-04-29 17:01 34.77346 -118.47518 37123 ft 450 kts 165°
2026-04-29 17:02 34.71706 -118.44199 37120 ft 451 kts 165°
2026-04-29 17:02 34.66066 -118.40885 37122 ft 450 kts 166°
2026-04-29 17:03 34.60441 -118.37585 37135 ft 448 kts 166°
2026-04-29 17:03 34.54822 -118.34294 37120 ft 449 kts 166°
2026-04-29 17:04 34.49192 -118.31001 37104 ft 449 kts 166°
2026-04-29 17:04 34.43575 -118.27720 37101 ft 447 kts 167°
2026-04-29 17:05 34.37977 -118.24455 37110 ft 446 kts 167°
2026-04-29 17:05 34.32378 -118.21196 37099 ft 446 kts 167°
2026-04-29 17:06 34.26770 -118.17935 37088 ft 447 kts 167°
2026-04-29 17:06 34.21214 -118.14710 37103 ft 445 kts 167°
2026-04-29 17:07 34.16538 -118.11997 37105 ft 445 kts 167°
2026-04-29 17:07 34.10023 -118.08181 37104 ft 451 kts 162°
2026-04-29 17:08 34.04575 -118.04365 37109 ft 453 kts 162°
2026-04-29 17:08 33.99137 -118.00632 37111 ft 453 kts 163°
2026-04-29 17:09 33.93654 -117.96888 37099 ft 453 kts 163°
2026-04-29 17:09 33.88140 -117.93130 37101 ft 453 kts 163°
2026-04-29 17:10 33.82662 -117.89402 37099 ft 452 kts 163°
2026-04-29 17:10 33.77233 -117.85713 37099 ft 451 kts 163°
2026-04-29 17:11 33.71758 -117.81998 37096 ft 451 kts 163°
2026-04-29 17:11 33.66292 -117.78294 37083 ft 451 kts 163°
2026-04-29 17:12 33.60821 -117.74592 37105 ft 451 kts 163°
2026-04-29 17:12 33.56243 -117.71499 37099 ft 451 kts 163°
2026-04-29 17:13 33.49884 -117.67210 37105 ft 451 kts 163°
2026-04-29 17:13 33.44418 -117.63528 37102 ft 449 kts 162°
2026-04-29 17:14 33.38974 -117.59867 37110 ft 449 kts 163°
2026-04-29 17:14 33.33530 -117.56210 37112 ft 449 kts 163°
2026-04-29 17:15 33.28082 -117.52557 37110 ft 449 kts 163°
2026-04-29 17:15 33.22643 -117.48914 37099 ft 447 kts 163°
2026-04-29 17:16 33.17211 -117.45281 37100 ft 449 kts 163°
2026-04-29 17:16 33.11762 -117.41643 37100 ft 449 kts 163°
2026-04-29 17:17 33.06313 -117.38010 37084 ft 449 kts 163°
2026-04-29 17:17 33.00871 -117.34386 37108 ft 447 kts 163°
2026-04-29 17:18 32.95434 -117.30771 37114 ft 447 kts 163°
2026-04-29 17:18 32.89994 -117.27159 37123 ft 447 kts 163°
2026-04-29 17:19 32.84560 -117.23556 37130 ft 448 kts 163°
2026-04-29 17:19 32.79122 -117.19955 37132 ft 447 kts 163°
2026-04-29 17:20 32.73679 -117.16356 37096 ft 447 kts 163°
2026-04-29 17:20 32.68266 -117.12767 37118 ft 452 kts 161°
2026-04-29 17:21 32.65733 -117.10425 37097 ft 474 kts 145°
2026-04-29 17:21 32.63481 -117.07523 37132 ft 479 kts 144°
2026-04-29 17:21 32.58956 -117.01690 37103 ft 481 kts 144°
2026-04-29 17:22 32.54453 -116.95833 37128 ft 477 kts 147°
2026-04-29 17:22 32.51993 -116.93321 37142 ft 464 kts 153°
2026-04-29 17:22 32.49483 -116.90891 37132 ft 467 kts 153°
2026-04-29 17:23 32.44460 -116.86044 37105 ft 465 kts 153°
2026-04-29 17:23 32.39422 -116.81203 37133 ft 467 kts 153°
2026-04-29 17:24 32.35232 -116.77181 37119 ft 466 kts 153°
2026-04-29 17:24 32.30184 -116.72347 37125 ft 467 kts 153°
2026-04-29 17:25 32.25142 -116.67528 37106 ft 466 kts 153°
2026-04-29 17:25 32.20099 -116.62715 37108 ft 466 kts 153°
2026-04-29 17:26 32.15079 -116.57868 37101 ft 467 kts 152°
2026-04-29 17:26 32.10104 -116.52900 37112 ft 469 kts 152°
2026-04-29 17:27 32.05113 -116.47939 37089 ft 469 kts 152°
2026-04-29 17:27 32.00136 -116.43000 37115 ft 468 kts 152°
2026-04-29 17:28 31.95161 -116.38071 37101 ft 467 kts 152°
2026-04-29 17:28 31.90195 -116.33157 37093 ft 466 kts 153°
2026-04-29 17:29 31.85222 -116.28244 37061 ft 466 kts 153°
2026-04-29 17:29 31.80254 -116.23343 37094 ft 468 kts 153°
2026-04-29 17:30 31.75258 -116.18431 37090 ft 466 kts 155°
2026-04-29 17:30 31.70123 -116.13884 37093 ft 463 kts 156°
2026-04-29 17:31 31.64995 -116.09315 37054 ft 463 kts 156°
2026-04-29 17:31 31.59904 -116.04778 37096 ft 462 kts 156°
2026-04-29 17:32 31.54797 -116.00233 37083 ft 461 kts 156°
2026-04-29 17:32 31.49672 -115.95679 37095 ft 462 kts 156°
2026-04-29 17:33 31.44533 -115.91156 37050 ft 461 kts 157°
2026-04-29 17:33 31.39392 -115.86584 37081 ft 466 kts 155°
2026-04-29 17:34 31.34240 -115.82005 37087 ft 464 kts 156°
2026-04-29 17:34 31.29085 -115.77447 37092 ft 464 kts 156°
2026-04-29 17:35 31.21369 -115.70639 37074 ft 463 kts 155°
2026-04-29 17:36 31.16213 -115.66088 37089 ft 464 kts 156°
2026-04-29 17:36 31.11051 -115.61561 37091 ft 466 kts 156°
2026-04-29 17:37 31.05869 -115.57010 37081 ft 466 kts 156°
2026-04-29 17:37 31.00690 -115.52465 37055 ft 466 kts 155°
2026-04-29 17:38 30.95501 -115.47922 37086 ft 468 kts 156°
2026-04-29 17:38 30.90332 -115.43403 37080 ft 467 kts 156°
2026-04-29 17:39 30.85138 -115.38866 37072 ft 467 kts 156°
2026-04-29 17:39 30.79966 -115.34256 37071 ft 470 kts 154°
2026-04-29 17:40 30.74853 -115.29504 37075 ft 471 kts 154°
2026-04-29 17:40 30.69708 -115.24752 37051 ft 473 kts 153°
2026-04-29 17:41 30.64766 -115.19650 36988 ft 462 kts 159°
2026-04-29 17:41 30.59508 -115.15330 37008 ft 457 kts 160°
2026-04-29 17:41 30.56841 -115.13275 36959 ft 472 kts 152°
2026-04-29 17:42 30.54407 -115.10682 37097 ft 478 kts 147°
2026-04-29 17:42 30.49626 -115.05291 37034 ft 463 kts 160°
2026-04-29 17:43 30.44270 -115.01231 37043 ft 468 kts 155°
2026-04-29 17:43 30.39084 -114.96597 37023 ft 472 kts 154°
2026-04-29 17:44 30.33937 -114.91900 37040 ft 472 kts 153°
2026-04-29 17:44 30.28775 -114.87195 37045 ft 472 kts 153°
2026-04-29 17:45 30.23618 -114.82493 37044 ft 472 kts 153°
2026-04-29 17:45 30.18460 -114.77796 37049 ft 472 kts 153°
2026-04-29 17:46 30.13303 -114.73107 37037 ft 472 kts 153°
2026-04-29 17:46 30.08134 -114.68413 37034 ft 472 kts 153°
2026-04-29 17:47 30.02971 -114.63732 37054 ft 472 kts 153°
2026-04-29 17:47 29.97803 -114.59050 37044 ft 472 kts 153°
2026-04-29 17:48 29.92642 -114.54382 37018 ft 472 kts 153°
2026-04-29 17:48 29.87458 -114.49702 37040 ft 474 kts 153°
2026-04-29 17:49 29.82273 -114.45025 37044 ft 473 kts 153°
2026-04-29 17:49 29.77087 -114.40353 37044 ft 473 kts 153°
2026-04-29 17:50 29.71891 -114.35680 37015 ft 476 kts 153°
2026-04-29 17:50 29.66661 -114.31063 36994 ft 465 kts 160°
2026-04-29 17:50 29.63837 -114.29470 37076 ft 447 kts 168°
2026-04-29 17:51 29.61029 -114.27756 36946 ft 469 kts 154°
2026-04-29 17:51 29.58611 -114.25141 37016 ft 487 kts 141°
2026-04-29 17:51 29.56278 -114.22333 36990 ft 482 kts 148°
2026-04-29 17:52 29.51240 -114.17306 37065 ft 478 kts 152°
2026-04-29 17:52 29.46130 -114.12620 37054 ft 471 kts 153°
2026-04-29 17:53 29.40924 -114.07959 37009 ft 471 kts 153°
2026-04-29 17:53 29.35777 -114.03414 37033 ft 470 kts 153°
2026-04-29 17:54 29.30505 -113.99101 37080 ft 459 kts 159°
2026-04-29 17:54 29.27921 -113.96823 36969 ft 478 kts 146°
2026-04-29 17:54 29.25474 -113.94283 37038 ft 471 kts 153°
2026-04-29 17:54 29.22745 -113.92463 37053 ft 442 kts 168°
2026-04-29 17:55 29.19983 -113.90778 36958 ft 465 kts 154°
2026-04-29 17:55 29.17601 -113.88181 37011 ft 481 kts 140°
2026-04-29 17:55 29.15354 -113.85355 36984 ft 474 kts 150°
2026-04-29 17:55 29.12807 -113.83049 37101 ft 467 kts 152°
2026-04-29 17:56 29.10246 -113.80732 37027 ft 470 kts 152°
2026-04-29 17:56 29.05100 -113.76154 37067 ft 469 kts 153°
2026-04-29 17:57 28.99954 -113.71607 37045 ft 467 kts 153°
2026-04-29 17:57 28.94820 -113.67077 37039 ft 466 kts 153°
2026-04-29 17:58 28.89692 -113.62555 37047 ft 466 kts 153°
2026-04-29 17:58 28.84561 -113.58037 37026 ft 466 kts 153°
2026-04-29 17:59 28.79413 -113.53523 36972 ft 466 kts 152°
2026-04-29 17:59 28.74293 -113.49023 37052 ft 466 kts 152°
2026-04-29 18:00 28.69166 -113.44528 37019 ft 464 kts 153°
2026-04-29 18:00 28.64043 -113.40014 37023 ft 467 kts 153°
2026-04-29 18:01 28.58889 -113.35534 37043 ft 467 kts 153°
2026-04-29 18:01 28.53772 -113.31066 37030 ft 466 kts 153°
2026-04-29 18:02 28.48620 -113.26569 37030 ft 467 kts 153°
2026-04-29 18:02 28.43459 -113.21998 37037 ft 472 kts 150°
2026-04-29 18:03 28.38325 -113.17582 37039 ft 467 kts 153°
2026-04-29 18:03 28.33162 -113.13120 37019 ft 466 kts 153°
2026-04-29 18:04 28.28024 -113.08657 37027 ft 466 kts 153°
2026-04-29 18:04 28.22865 -113.04192 37034 ft 467 kts 153°
2026-04-29 18:05 28.17703 -112.99720 37031 ft 466 kts 153°
2026-04-29 18:05 28.12549 -112.95265 37031 ft 466 kts 153°
2026-04-29 18:06 28.07394 -112.90809 37057 ft 466 kts 152°
2026-04-29 18:06 28.02249 -112.86372 37025 ft 464 kts 153°
2026-04-29 18:07 27.97097 -112.81937 37008 ft 465 kts 152°
2026-04-29 18:07 27.91957 -112.77515 37025 ft 465 kts 152°
2026-04-29 18:08 27.86798 -112.73081 37011 ft 466 kts 152°
2026-04-29 18:08 27.81633 -112.68648 37016 ft 466 kts 151°
2026-04-29 18:09 27.76466 -112.64219 37016 ft 466 kts 152°
2026-04-29 18:09 27.71330 -112.59821 37019 ft 466 kts 152°
2026-04-29 18:10 27.66165 -112.55404 37020 ft 466 kts 152°
2026-04-29 18:10 27.60997 -112.50987 37003 ft 467 kts 152°
2026-04-29 18:11 27.55803 -112.46559 37013 ft 469 kts 152°
2026-04-29 18:11 27.50600 -112.42114 37026 ft 471 kts 152°
2026-04-29 18:12 27.45362 -112.37654 37012 ft 473 kts 150°
2026-04-29 18:12 27.40423 -112.32648 37010 ft 476 kts 149°
2026-04-29 18:12 27.38666 -112.31235 36956 ft 462 kts 159°
2026-04-29 18:13 27.35911 -112.29381 36999 ft 468 kts 155°
2026-04-29 18:13 27.30476 -112.25358 36999 ft 464 kts 159°
2026-04-29 18:14 27.24954 -112.21572 37004 ft 465 kts 158°
2026-04-29 18:14 27.19444 -112.17767 37005 ft 465 kts 158°
2026-04-29 18:15 27.13930 -112.13961 37002 ft 465 kts 158°
2026-04-29 18:15 27.08413 -112.10158 37007 ft 466 kts 158°
2026-04-29 18:16 27.02886 -112.06352 36994 ft 466 kts 158°
2026-04-29 18:16 26.97361 -112.02552 36997 ft 466 kts 158°
2026-04-29 18:17 26.91832 -111.98749 37015 ft 466 kts 158°
2026-04-29 18:17 26.86300 -111.94956 36972 ft 465 kts 158°
2026-04-29 18:18 26.80781 -111.91175 36980 ft 466 kts 158°
2026-04-29 18:18 26.75252 -111.87391 36993 ft 466 kts 158°
2026-04-29 18:19 26.69727 -111.83610 36993 ft 465 kts 158°
2026-04-29 18:19 26.64210 -111.79839 36996 ft 465 kts 158°
2026-04-29 18:20 26.58683 -111.76065 36990 ft 466 kts 158°
2026-04-29 18:20 26.53182 -111.72313 36991 ft 466 kts 158°
2026-04-29 18:21 26.47657 -111.68548 36983 ft 466 kts 158°
2026-04-29 18:21 26.42122 -111.64782 36991 ft 466 kts 158°
2026-04-29 18:22 26.36594 -111.61024 36976 ft 466 kts 157°
2026-04-29 18:22 26.31061 -111.57267 37002 ft 467 kts 157°
2026-04-29 18:23 26.25511 -111.53504 36988 ft 466 kts 157°
2026-04-29 18:23 26.19962 -111.49745 36988 ft 466 kts 157°
2026-04-29 18:24 26.14419 -111.45995 36988 ft 466 kts 157°
2026-04-29 18:24 26.08872 -111.42245 36988 ft 466 kts 157°
2026-04-29 18:25 26.03327 -111.38501 36982 ft 466 kts 157°
2026-04-29 18:25 25.97876 -111.34539 37001 ft 479 kts 145°
2026-04-29 18:26 25.93203 -111.29178 37005 ft 485 kts 142°
2026-04-29 18:26 25.88555 -111.23761 37031 ft 485 kts 141°
2026-04-29 18:27 25.83914 -111.18315 37000 ft 486 kts 141°
2026-04-29 18:27 25.79259 -111.12855 37002 ft 488 kts 141°
2026-04-29 18:28 25.74584 -111.07379 36984 ft 489 kts 141°
2026-04-29 18:28 25.69901 -111.01900 36982 ft 489 kts 141°
2026-04-29 18:29 25.65222 -110.96433 36985 ft 489 kts 141°
2026-04-29 18:29 25.60537 -110.90965 36957 ft 488 kts 141°
2026-04-29 18:30 25.55864 -110.85517 36978 ft 487 kts 141°
2026-04-29 18:30 25.51193 -110.80079 36982 ft 487 kts 141°
2026-04-29 18:31 25.46514 -110.74638 36984 ft 488 kts 141°
2026-04-29 18:31 25.41826 -110.69193 36980 ft 488 kts 141°
2026-04-29 18:32 25.37139 -110.63756 36976 ft 488 kts 141°
2026-04-29 18:32 25.30116 -110.55622 36973 ft 487 kts 141°
2026-04-29 18:33 25.25437 -110.50210 36977 ft 487 kts 141°
2026-04-29 18:33 25.20790 -110.44842 36972 ft 487 kts 141°
2026-04-29 18:34 25.16862 -110.40308 36975 ft 488 kts 141°
2026-04-29 18:34 25.11406 -110.34021 36952 ft 488 kts 140°
2026-04-29 18:35 25.06712 -110.28617 36971 ft 487 kts 140°
2026-04-29 18:35 25.02024 -110.23227 36972 ft 487 kts 140°
2026-04-29 18:36 24.97332 -110.17839 36972 ft 487 kts 140°
2026-04-29 18:36 24.92641 -110.12458 36965 ft 487 kts 140°
2026-04-29 18:37 24.87937 -110.07069 36960 ft 488 kts 140°
2026-04-29 18:37 24.85584 -110.04375 36768 ft 486 kts 140°
2026-04-29 18:37 24.83247 -110.01701 36516 ft 484 kts 140°
2026-04-29 18:38 24.80911 -109.99031 36253 ft 484 kts 140°
2026-04-29 18:38 24.78573 -109.96359 35994 ft 485 kts 140°
2026-04-29 18:38 24.76231 -109.93684 35744 ft 486 kts 140°
2026-04-29 18:38 24.73881 -109.91002 35493 ft 487 kts 140°
2026-04-29 18:39 24.71534 -109.88325 35242 ft 487 kts 140°
2026-04-29 18:39 24.69176 -109.85636 34991 ft 488 kts 139°
2026-04-29 18:39 24.66815 -109.82947 34751 ft 489 kts 139°
2026-04-29 18:39 24.64458 -109.80262 34307 ft 486 kts 139°
2026-04-29 18:40 24.62092 -109.77570 33205 ft 494 kts 139°
2026-04-29 18:40 24.59684 -109.74830 32024 ft 499 kts 138°
2026-04-29 18:40 24.57286 -109.72104 31211 ft 493 kts 137°
2026-04-29 18:40 24.54919 -109.69415 30500 ft 485 kts 137°
2026-04-29 18:41 24.47974 -109.61535 27890 ft 475 kts 137°
2026-04-29 18:41 24.45656 -109.58906 27248 ft 481 kts 137°
2026-04-29 18:42 24.43327 -109.56267 26578 ft 481 kts 137°
2026-04-29 18:42 24.41008 -109.53641 25916 ft 477 kts 137°
2026-04-29 18:42 24.38713 -109.51043 25251 ft 473 kts 137°
2026-04-29 18:42 24.36426 -109.48466 24579 ft 469 kts 139°
2026-04-29 18:43 24.33878 -109.46293 23738 ft 463 kts 154°
2026-04-29 18:43 24.30937 -109.44950 22917 ft 454 kts 168°
2026-04-29 18:43 24.27858 -109.44409 22245 ft 444 kts 181°
2026-04-29 18:43 24.24816 -109.44647 21590 ft 435 kts 191°
2026-04-29 18:44 24.21845 -109.45202 20904 ft 431 kts 193°
2026-04-29 18:44 24.18920 -109.45845 20238 ft 427 kts 194°
2026-04-29 18:44 24.16023 -109.46533 19586 ft 424 kts 194°
2026-04-29 18:44 24.13153 -109.47238 18936 ft 422 kts 195°
2026-04-29 18:45 24.10299 -109.47955 18279 ft 420 kts 195°
2026-04-29 18:45 24.07454 -109.48677 17570 ft 418 kts 195°
2026-04-29 18:45 24.04637 -109.49393 16921 ft 414 kts 195°
2026-04-29 18:45 24.01846 -109.50103 16310 ft 410 kts 195°
2026-04-29 18:46 23.99070 -109.50810 15731 ft 407 kts 195°
2026-04-29 18:46 23.96390 -109.51491 15482 ft 395 kts 195°
2026-04-29 18:46 23.93713 -109.52172 15234 ft 385 kts 195°
2026-04-29 18:46 23.91138 -109.52832 14948 ft 375 kts 197°
2026-04-29 18:47 23.88668 -109.53738 14363 ft 371 kts 201°
2026-04-29 18:47 23.86290 -109.54643 13906 ft 363 kts 201°
2026-04-29 18:47 23.83928 -109.55526 13381 ft 357 kts 201°
2026-04-29 18:47 23.81594 -109.56391 12840 ft 351 kts 201°
2026-04-29 18:48 23.79305 -109.57233 12338 ft 345 kts 201°
2026-04-29 18:48 23.77049 -109.58063 11843 ft 339 kts 201°
2026-04-29 18:48 23.74832 -109.58876 11369 ft 334 kts 201°
2026-04-29 18:48 23.72646 -109.59678 10898 ft 329 kts 200°
2026-04-29 18:49 23.70495 -109.60467 10429 ft 324 kts 201°
2026-04-29 18:49 23.68370 -109.61246 9980 ft 320 kts 201°
2026-04-29 18:49 23.66272 -109.62015 9498 ft 316 kts 201°
2026-04-29 18:49 23.64199 -109.62774 9018 ft 312 kts 201°
2026-04-29 18:50 23.62157 -109.63521 8575 ft 308 kts 200°
2026-04-29 18:50 23.60139 -109.64261 8128 ft 304 kts 200°
2026-04-29 18:50 23.58144 -109.64991 7708 ft 301 kts 200°
2026-04-29 18:50 23.56169 -109.65712 7271 ft 297 kts 200°
2026-04-29 18:51 23.54218 -109.66426 6865 ft 294 kts 200°
2026-04-29 18:51 23.52287 -109.67132 6443 ft 292 kts 200°
2026-04-29 18:51 23.50375 -109.67831 6015 ft 289 kts 200°
2026-04-29 18:51 23.48472 -109.68526 5580 ft 287 kts 200°
2026-04-29 18:52 23.46592 -109.69213 5168 ft 284 kts 200°
2026-04-29 18:52 23.44724 -109.69894 4766 ft 282 kts 200°
2026-04-29 18:52 23.42870 -109.70571 4338 ft 281 kts 199°
2026-04-29 18:52 23.41027 -109.71244 3969 ft 277 kts 199°
2026-04-29 18:53 23.39228 -109.71905 3729 ft 269 kts 200°
2026-04-29 18:53 23.37481 -109.72549 3482 ft 261 kts 200°
2026-04-29 18:53 23.35795 -109.73167 3321 ft 250 kts 199°
2026-04-29 18:53 23.34208 -109.73747 3168 ft 239 kts 199°
2026-04-29 18:54 23.32580 -109.74074 2892 ft 233 kts 179°
2026-04-29 18:54 23.31016 -109.73907 2697 ft 224 kts 173°
2026-04-29 18:54 23.29509 -109.73708 2560 ft 212 kts 173°
2026-04-29 18:54 23.28072 -109.73540 2377 ft 204 kts 174°
2026-04-29 18:55 23.26728 -109.73387 2233 ft 184 kts 174°
2026-04-29 18:55 23.25495 -109.73247 2036 ft 174 kts 173°
2026-04-29 18:55 23.24327 -109.73114 1857 ft 160 kts 173°
2026-04-29 18:55 23.23256 -109.72993 1701 ft 152 kts 173°
2026-04-29 18:56 23.22220 -109.72874 1489 ft 148 kts 173°
2026-04-29 18:56 23.21194 -109.72757 1306 ft 148 kts 173°
2026-04-29 18:56 23.20174 -109.72641 1139 ft 147 kts 173°
2026-04-29 18:56 23.19175 -109.72526 961 ft 142 kts 172°
2026-04-29 18:57 23.18194 -109.72415 757 ft 142 kts 173°
2026-04-29 18:57 23.17216 -109.72304 558 ft 140 kts 172°
2026-04-29 18:57 23.16256 -109.72192 392 ft 134 kts 174°
2026-04-29 18:57 23.15476 -109.72107 367 ft 89 kts 174°
2026-04-29 18:58 23.15080 -109.72056 356 ft 14 kts 160°
2026-04-29 18:58 23.14975 -109.71997 350 ft 20 kts 150°
2026-04-29 18:58 23.14854 -109.71903 348 ft 19 kts 142°
2026-04-29 18:58 23.14820 -109.71845 344 ft 9 kts 62°
2026-04-29 18:59 23.14873 -109.71832 349 ft 8 kts 354°
2026-04-29 18:59 23.14916 -109.71837 351 ft 10 kts 354°
2026-04-29 18:59 23.15031 -109.71850 354 ft 16 kts 354°
2026-04-29 18:59 23.15109 -109.71859 354 ft 17 kts 354°
2026-04-29 19:00 23.15231 -109.71873 360 ft 18 kts 354°
2026-04-29 19:00 23.15353 -109.71886 360 ft 18 kts 354°
2026-04-29 19:00 23.15461 -109.71893 362 ft 12 kts 19°
2026-04-29 19:00 23.15466 -109.71823 363 ft 9 kts 120°
2026-04-29 19:01 23.15459 -109.71791 361 ft 4 kts 77°
2026-04-29 19:01 23.15464 -109.71756 361 ft 3 kts 83°
2026-04-29 19:01 23.15464 -109.71748 361 ft 0 kts 84°